Tracking 19795 objects as of 20-Jul-2019
HD Live streaming from Space Station
objects crossing your sky now

FENGYUN 1C DEB

Track FENGYUN 1C DEB now!
10-day predictions


NORAD ID: 31092
Int'l Code: 1999-025BGN
Perigee: 856.2 km
Apogee: 1,368.4 km
Inclination: 99.5 °
Period: 107.4 minutes
Semi major axis: 7483 km
RCS: 0.0082 m2 (small)
Launch date: May 10, 1999
Source: People's Republic of China (PRC)
Launch site: Taiyaun Space Center, China (TSC)

Note: This is SATELLITE DEBRIS
aabbcc
Your satellite tracking list
Your tracking list is empty




NASA's NSSDC Master Catalog

Two Line Element Set (TLE):
1 31092U 99025BGN 19199.50903573  .00000212  00000-0  32079-3 0  9990
2 31092  99.5141  30.3247 0342221 141.0227 221.6112 13.41102486605642
Source of the keplerian elements: AFSPC